Location: ??????
(55.2000°N, 38.3000°E)
Time: 07:21:06
(UTC+00:00)

Cosmos 2369 Rocket - Pass Details

Date: 15 November 2025
Orbit: 826 x 853 km, 71.0° (Epoch: 14 December)

Event Time Altitude Azimuth Distance (km) Brightness Sun altitude
Exits shadow 03:41:48 12° 310° (NW) 2,365 4.0 -10.9°
Maximum altitude 03:46:17 30° 254° (WSW) 1,494 3.1 -10.3°
Drops below altitude 10° 03:51:07 10° 195° (SSW) 2,476 4.7 -9.7°
Sets 03:53:50 0° 185° (S) 3,409 5.5 -9.3°
